period_start,C,m1,H,J0,J1,J2,J3,J4,J5,JA,JB,JC,JD,JJ,JK,JN,#
2016-05-06 00:04:23,0.04,0.37,0.00,21.08,25.83,29.65,14.83,49.88,1017.10,2042.91,3335.92,3062.55,3462.10,600.25,600.46,7.22,0000 0000 0000 0000 000000
2016-05-06 00:09:24,0.02,0.37,0.00,21.11,25.84,29.64,14.70,49.48,1017.10,2042.80,3335.08,3062.00,3461.39,600.08,600.26,7.27,0000 0000 0000 0000 000000
2016-05-06 00:14:26,0.02,0.37,0.00,21.16,25.85,29.64,14.68,49.53,1017.10,2042.52,3334.26,3061.30,3460.68,600.13,600.18,7.32,0000 0000 0000 0000 000000
2016-05-06 00:19:27,0.02,0.37,0.00,21.21,25.85,29.68,14.65,49.42,1017.11,2042.42,3333.44,3060.91,3459.98,599.79,599.74,7.37,0000 0000 0000 0000 000000
2016-05-06 00:24:28,0.04,0.37,0.00,21.26,25.87,29.72,14.75,49.55,1017.11,2042.39,3332.55,3060.09,3459.14,599.99,599.75,7.42,0000 0000 0000 0000 000000
2016-05-06 00:29:29,0.02,0.37,0.00,21.39,25.87,29.81,14.72,49.84,1017.12,2042.21,3331.80,3059.72,3458.43,600.10,599.69,7.47,0000 0000 0000 0000 000000
2016-05-06 00:34:31,0.02,0.38,0.00,21.43,25.89,29.89,14.65,49.49,1017.12,2042.14,3331.00,3059.03,3457.79,599.73,599.06,7.52,0000 0000 0000 0000 000000
2016-05-06 00:39:32,0.03,0.38,0.00,21.47,25.90,29.99,14.70,49.64,1017.16,2042.05,3330.15,3058.52,3457.02,599.98,599.33,7.57,0000 0000 0000 0000 000000
2016-05-06 00:44:33,0.02,0.38,0.00,21.51,25.92,29.99,14.80,49.61,1017.28,2042.03,3329.42,3058.00,3456.26,600.25,599.77,7.62,0000 0000 0000 0000 000000
2016-05-06 00:49:35,0.04,0.38,0.00,21.54,25.93,30.04,14.75,49.42,1017.37,2042.01,3328.67,3057.25,3455.60,600.28,599.71,7.67,0000 0000 0000 0000 000000
2016-05-06 00:54:36,0.01,0.38,0.00,21.54,25.95,30.10,14.80,49.48,1017.55,2042.00,3327.90,3056.85,3454.94,600.08,599.70,7.73,0000 0000 0000 0000 000000
2016-05-06 00:59:38,0.04,0.39,0.00,21.57,25.97,30.16,14.71,49.46,1017.59,2042.00,3327.07,3056.09,3454.10,599.91,599.41,7.78,0000 0000 0000 0000 000000
2016-05-06 01:04:39,0.02,0.39,0.00,21.58,25.98,30.14,14.68,49.45,1017.59,2042.00,3326.61,3055.95,3453.64,600.03,599.58,7.83,0000 0000 0000 0000 000000
2016-05-06 01:09:40,0.03,0.39,0.00,21.59,26.00,30.19,14.72,49.53,1017.60,2042.00,3325.89,3055.19,3452.98,600.26,599.72,7.88,0000 0000 0000 0000 000000
2016-05-06 01:14:42,0.03,0.39,0.00,21.61,26.02,30.18,14.75,49.68,1017.60,2041.97,3325.06,3054.82,3452.16,600.09,599.48,7.93,0000 0000 0000 0000 000000
2016-05-06 01:19:43,0.03,0.39,0.00,21.64,26.04,30.18,14.64,49.51,1017.61,2041.97,3324.39,3054.07,3451.72,599.88,599.42,7.98,0000 0000 0000 0000 000000
2016-05-06 01:24:44,0.01,0.39,0.00,21.66,26.06,30.17,14.68,49.49,1017.60,2041.96,3323.82,3053.91,3451.03,600.08,599.46,8.03,0000 0000 0000 0000 000000
2016-05-06 01:29:46,0.03,0.40,0.00,21.68,26.08,30.20,14.64,49.42,1017.65,2041.89,3323.00,3053.13,3450.31,599.92,599.27,8.08,0000 0000 0000 0000 000000
2016-05-06 01:34:47,0.01,0.40,0.00,21.71,26.10,30.27,14.73,49.59,1017.84,2041.53,3322.16,3052.72,3449.72,600.03,599.35,8.13,0000 0000 0000 0000 000000
2016-05-06 01:39:48,0.01,0.40,0.00,21.86,26.12,30.21,14.67,49.48,1017.87,2041.18,3321.37,3052.04,3449.00,600.49,599.43,8.18,0000 0000 0000 0000 000000
2016-05-06 01:44:49,0.03,0.40,0.00,22.60,26.17,29.93,14.56,49.35,1017.98,2041.04,3320.81,3051.55,3448.17,600.23,597.80,8.23,0000 0000 0000 0000 000000
2016-05-06 01:49:51,0.03,0.40,0.00,23.01,26.22,29.84,14.57,49.37,1018.07,2041.00,3320.00,3050.81,3447.39,599.88,596.84,8.28,0000 0000 0000 0000 000000
2016-05-06 01:54:52,0.04,0.40,0.00,23.22,26.29,29.86,14.50,49.33,1018.08,2040.99,3319.04,3049.96,3446.43,599.81,596.38,8.33,0000 0000 0000 0000 000000
2016-05-06 01:59:53,0.02,0.40,0.00,23.37,26.37,30.00,14.53,49.30,1018.08,2040.75,3317.99,3049.08,3445.31,599.82,595.99,8.38,0000 0000 0000 0000 000000
2016-05-06 02:04:54,0.01,0.40,0.00,23.51,26.44,30.13,14.53,49.24,1018.08,2040.06,3316.91,3048.14,3444.20,600.00,595.90,8.43,0000 0000 0000 0000 000000
2016-05-06 02:09:56,0.06,0.41,0.00,23.55,26.53,30.24,14.50,49.10,1018.08,2040.00,3315.73,3047.26,3443.08,600.07,595.95,8.48,0000 0000 0000 0000 000000
2016-05-06 02:14:57,0.01,0.41,0.00,23.65,26.60,30.28,14.49,49.02,1018.09,2039.76,3314.67,3046.25,3441.98,599.94,595.56,8.53,0000 0000 0000 0000 000000
2016-05-06 02:19:58,0.02,0.41,0.00,23.74,26.68,30.34,14.54,49.08,1018.14,2039.11,3313.67,3045.28,3440.86,600.37,595.83,8.58,0000 0000 0000 0000 000000
2016-05-06 02:25:00,0.05,0.41,0.00,23.61,26.76,30.45,14.50,49.21,1018.18,2038.99,3312.35,3044.30,3439.78,599.84,595.55,8.63,0000 0000 0000 0000 000000
2016-05-06 02:30:01,0.00,0.41,0.00,23.58,26.84,30.49,14.57,49.08,1018.24,2038.60,3311.24,3043.40,3438.61,600.07,595.85,8.68,0000 0000 0000 0000 000000
2016-05-06 02:35:02,0.02,0.41,0.00,23.76,26.92,30.54,14.43,49.00,1018.22,2038.04,3310.06,3042.48,3437.52,599.81,595.41,8.73,0000 0000 0000 0000 000000
2016-05-06 02:40:04,0.06,0.41,0.00,23.90,27.00,30.61,14.44,48.93,1018.41,2037.99,3308.89,3041.52,3436.41,599.80,595.03,8.78,0000 0000 0000 0000 000000
2016-05-06 02:45:05,0.02,0.42,0.00,24.01,27.08,30.68,14.43,49.21,1018.53,2037.76,3307.85,3040.63,3435.28,599.71,594.84,8.83,0000 0000 0000 0000 000000
2016-05-06 02:50:06,-0.01,0.42,0.00,24.07,27.15,30.73,14.47,49.08,1018.57,2037.08,3306.83,3039.87,3434.25,600.05,595.03,8.88,0000 0000 0000 0000 000000
2016-05-06 02:55:07,0.06,0.42,0.00,24.11,27.23,30.79,14.46,48.93,1018.57,2037.00,3305.73,3038.86,3433.26,599.92,594.92,8.93,0000 0000 0000 0000 000000
2016-05-06 03:00:09,0.03,0.42,0.00,24.14,27.29,30.81,14.48,49.19,1018.57,2036.87,3304.64,3037.93,3432.10,599.84,594.82,8.98,0000 0000 0000 0000 000000
2016-05-06 03:05:10,-0.02,0.42,0.00,24.16,27.36,30.84,14.47,49.03,1018.57,2036.16,3303.59,3037.09,3431.14,599.89,594.51,9.03,0000 0000 0000 0000 000000
2016-05-06 03:10:12,0.05,0.42,0.00,24.05,27.42,30.88,14.48,48.92,1018.57,2036.01,3302.56,3036.25,3430.17,599.95,595.10,9.08,0000 0000 0000 0000 000000
2016-05-06 03:15:13,0.05,0.42,0.00,24.08,27.48,30.93,14.51,49.24,1018.57,2035.98,3301.64,3035.53,3429.20,600.03,595.07,9.13,0000 0000 0000 0000 000000
2016-05-06 03:20:14,0.02,0.43,0.00,24.22,27.54,30.97,14.46,49.15,1018.58,2035.76,3300.66,3034.69,3428.18,599.73,594.50,9.18,0000 0000 0000 0000 000000
2016-05-06 03:25:15,-0.01,0.43,0.00,24.28,27.59,31.00,14.49,49.23,1018.59,2035.13,3299.73,3033.99,3427.36,600.00,594.60,9.23,0000 0000 0000 0000 000000
2016-05-06 03:30:17,0.04,0.43,0.00,24.26,27.64,31.03,14.56,49.14,1018.64,2035.00,3298.86,3033.18,3426.49,600.52,595.10,9.28,0000 0000 0000 0000 000000
2016-05-06 03:35:18,0.05,0.43,0.00,24.28,27.69,31.07,14.42,49.01,1018.67,2035.00,3297.85,3032.47,3425.51,600.03,594.70,9.33,0000 0000 0000 0000 000000
2016-05-06 03:40:19,0.02,0.43,0.00,24.35,27.74,31.08,14.46,49.11,1018.71,2034.89,3296.97,3031.88,3424.70,600.06,594.60,9.38,0000 0000 0000 0000 000000
2016-05-06 03:45:21,-0.02,0.43,0.00,24.39,27.78,31.09,14.53,49.19,1018.88,2034.26,3296.08,3031.07,3423.85,600.08,594.59,9.43,0000 0000 0000 0000 000000
2016-05-06 03:50:22,0.04,0.43,0.00,24.40,27.83,31.12,14.46,49.02,1019.02,2034.01,3295.17,3030.29,3422.96,599.87,594.57,9.48,0000 0000 0000 0000 000000
2016-05-06 03:55:23,0.04,0.43,0.00,24.43,27.86,31.12,14.52,48.92,1019.05,2034.00,3294.26,3029.79,3422.08,599.92,594.46,9.53,0000 0000 0000 0000 000000
2016-05-06 04:00:24,0.04,0.44,0.00,24.44,27.90,31.15,14.49,48.96,1019.05,2033.99,3293.60,3029.04,3421.42,599.92,594.53,9.58,0000 0000 0000 0000 000000
2016-05-06 04:05:26,0.02,0.44,0.00,24.46,27.93,31.13,14.47,49.14,1019.06,2033.95,3292.90,3028.69,3420.81,599.64,594.19,9.63,0000 0000 0000 0000 000000
2016-05-06 04:10:27,0.02,0.44,0.00,24.45,27.96,31.15,14.44,49.16,1019.06,2033.85,3292.08,3028.03,3420.04,600.14,594.56,9.68,0000 0000 0000 0000 000000
2016-05-06 04:15:28,-0.01,0.44,0.00,24.33,27.99,31.17,14.55,49.17,1019.06,2033.35,3291.34,3027.66,3419.47,600.47,595.42,9.73,0000 0000 0000 0000 000000
2016-05-06 04:20:29,0.01,0.44,0.00,24.41,28.01,31.16,14.48,48.88,1019.06,2033.13,3290.88,3027.03,3418.97,599.95,594.56,9.78,0000 0000 0000 0000 000000
2016-05-06 04:25:31,0.03,0.44,0.00,24.49,28.03,31.20,14.48,48.99,1019.07,2033.01,3290.10,3026.74,3418.19,600.15,594.63,9.83,0000 0000 0000 0000 000000
2016-05-06 04:30:32,0.03,0.44,0.00,24.52,28.06,31.21,14.46,48.95,1019.07,2033.01,3289.57,3026.06,3417.83,599.75,594.22,9.88,0000 0000 0000 0000 000000
2016-05-06 04:35:33,0.02,0.44,0.00,24.53,28.07,31.21,14.53,49.08,1019.07,2033.00,3288.95,3025.83,3417.09,599.92,594.47,9.93,0000 0000 0000 0000 000000
2016-05-06 04:40:35,0.04,0.45,0.00,24.55,28.10,31.22,14.53,49.02,1019.07,2033.00,3288.13,3025.07,3416.68,600.26,594.62,9.98,0000 0000 0000 0000 000000
2016-05-06 04:45:36,0.01,0.45,0.00,24.55,28.11,31.21,14.49,49.33,1019.10,2033.00,3287.83,3024.98,3416.02,600.05,594.53,10.04,0000 0000 0000 0000 000000
2016-05-06 04:50:37,0.04,0.45,0.00,24.56,28.12,31.22,14.45,49.23,1019.08,2032.99,3287.07,3024.36,3415.67,600.15,594.39,10.09,0000 0000 0000 0000 000000
2016-05-06 04:55:39,0.02,0.45,0.00,24.59,28.14,31.22,14.52,49.42,1019.08,2032.97,3286.50,3024.00,3415.02,600.39,594.74,10.14,0000 0000 0000 0000 000000
2016-05-06 05:00:40,0.02,0.45,0.00,24.59,28.15,31.24,14.48,49.32,1019.11,2032.94,3286.02,3023.87,3414.60,600.04,594.34,10.19,0000 0000 0000 0000 000000
2016-05-06 05:05:41,0.03,0.45,0.00,24.59,28.15,31.22,14.45,49.22,1019.09,2032.92,3285.53,3023.16,3414.02,599.69,593.94,10.24,0000 0000 0000 0000 000000
2016-05-06 05:10:42,-0.01,0.45,0.00,24.62,28.17,31.23,14.45,49.06,1019.09,2032.75,3285.01,3023.00,3413.72,599.99,594.22,10.29,0000 0000 0000 0000 000000
2016-05-06 05:15:44,-0.01,0.45,0.00,24.64,28.17,31.24,14.50,49.34,1019.11,2032.44,3284.51,3022.77,3413.05,600.32,594.53,10.34,0000 0000 0000 0000 000000
2016-05-06 05:20:45,0.02,0.45,0.00,24.67,28.17,31.22,14.51,49.30,1019.10,2032.27,3284.01,3022.11,3412.94,600.04,594.17,10.39,0000 0000 0000 0000 000000
2016-05-06 05:25:46,0.01,0.45,0.00,24.67,28.18,31.21,14.52,49.38,1019.10,2032.08,3283.62,3022.00,3412.20,600.25,594.40,10.44,0000 0000 0000 0000 000000
2016-05-06 05:30:48,0.01,0.45,0.00,24.70,28.20,31.23,14.47,49.44,1019.11,2032.10,3283.01,3021.84,3412.00,600.05,593.99,10.49,0000 0000 0000 0000 000000
2016-05-06 05:35:49,0.02,0.46,0.00,24.70,28.20,31.22,14.49,49.36,1019.09,2032.10,3282.81,3021.22,3411.79,600.37,594.32,10.54,0000 0000 0000 0000 000000
2016-05-06 05:40:51,0.01,0.46,0.00,24.73,28.20,31.22,14.47,49.27,1019.07,2032.05,3282.09,3021.01,3411.08,600.30,594.30,10.59,0000 0000 0000 0000 000000
2016-05-06 05:45:52,0.00,0.46,0.00,24.77,28.22,31.21,14.34,49.02,1019.09,2032.04,3281.95,3020.98,3410.97,599.89,593.92,10.64,0000 0000 0000 0000 000000
2016-05-06 05:50:53,0.04,0.46,0.00,24.78,28.22,31.21,14.46,49.32,1019.11,2032.02,3281.22,3020.48,3410.36,599.56,593.36,10.69,0000 0000 0000 0000 000000
2016-05-06 05:55:54,0.00,0.46,0.00,24.78,28.22,31.22,14.48,49.17,1019.20,2032.01,3281.00,3020.02,3410.00,600.24,594.21,10.74,0000 0000 0000 0000 000000
2016-05-06 06:00:56,0.01,0.46,0.00,24.83,28.23,31.21,14.48,49.35,1019.15,2032.01,3280.44,3020.00,3409.95,600.36,594.20,10.79,0000 0000 0000 0000 000000
2016-05-06 06:05:57,0.01,0.46,0.00,24.85,28.24,31.20,14.41,49.22,1019.25,2032.01,3280.02,3019.99,3409.32,600.06,593.89,10.84,0000 0000 0000 0000 000000
2016-05-06 06:10:59,0.01,0.46,0.00,24.86,28.25,31.20,14.47,49.26,1019.14,2032.00,3279.92,3019.62,3409.01,600.00,593.85,10.89,0000 0000 0000 0000 000000
2016-05-06 06:16:00,0.02,0.46,0.00,24.85,28.25,31.22,14.41,49.13,1019.13,2032.00,3279.22,3019.03,3408.93,599.74,593.55,10.94,0000 0000 0000 0000 000000
2016-05-06 06:21:02,0.01,0.46,0.00,24.87,28.25,31.21,14.41,49.10,1019.16,2032.00,3279.00,3019.00,3408.33,599.90,593.79,10.99,0000 0000 0000 0000 000000
2016-05-06 06:26:03,0.01,0.46,0.00,24.84,28.25,31.19,14.42,49.22,1019.20,2032.00,3278.69,3018.97,3408.00,599.65,593.49,11.04,0000 0000 0000 0000 000000
2016-05-06 06:31:04,0.02,0.47,0.00,24.83,28.25,31.22,14.54,49.25,1019.13,2032.00,3278.06,3018.58,3407.95,599.97,593.81,11.09,0000 0000 0000 0000 000000
2016-05-06 06:36:05,0.02,0.47,0.00,24.85,28.25,31.21,14.44,49.24,1019.14,2032.00,3277.97,3018.05,3407.33,599.89,593.70,11.14,0000 0000 0000 0000 000000
2016-05-06 06:41:07,0.01,0.47,0.00,24.87,28.25,31.20,14.34,49.03,1019.13,2032.00,3277.39,3018.00,3407.02,599.78,593.57,11.19,0000 0000 0000 0000 000000
2016-05-06 06:46:08,0.00,0.47,0.00,24.89,28.25,31.20,14.44,49.38,1019.09,2032.00,3277.01,3018.00,3406.99,600.04,593.76,11.24,0000 0000 0000 0000 000000
2016-05-06 06:51:09,0.00,0.47,0.00,24.90,28.25,31.20,14.42,49.10,1019.08,2032.00,3276.95,3017.95,3406.80,599.93,593.64,11.29,0000 0000 0000 0000 000000
2016-05-06 06:56:10,0.03,0.47,0.00,24.92,28.25,31.20,14.41,49.12,1019.07,2032.00,3276.49,3017.55,3406.19,599.75,593.38,11.34,0000 0000 0000 0000 000000
2016-05-06 07:01:12,0.01,0.47,0.00,24.91,28.25,31.20,14.40,49.20,1019.12,2032.00,3276.01,3017.04,3406.00,599.81,593.53,11.39,0000 0000 0000 0000 000000
2016-05-06 07:06:13,0.00,0.47,0.00,24.87,28.25,31.21,14.48,49.40,1019.24,2032.00,3275.95,3017.01,3405.98,600.01,593.89,11.44,0000 0000 0000 0000 000000
2016-05-06 07:11:14,0.02,0.47,0.00,24.88,28.25,31.20,14.50,49.33,1019.50,2032.00,3275.25,3017.00,3405.44,600.18,594.13,11.49,0000 0000 0000 0000 000000
2016-05-06 07:16:15,0.00,0.47,0.00,24.90,28.25,31.19,14.37,49.14,1019.51,2032.00,3275.00,3016.95,3405.04,599.90,593.84,11.54,0000 0000 0000 0000 000000
2016-05-06 07:21:17,0.02,0.47,0.00,24.90,28.25,31.19,14.44,49.15,1019.52,2032.00,3274.98,3016.46,3405.00,600.15,594.20,11.59,0000 0000 0000 0000 000000
2016-05-06 07:26:19,0.02,0.47,0.00,24.92,28.25,31.20,14.41,49.33,1019.52,2032.00,3274.44,3016.07,3404.89,600.27,594.18,11.64,0000 0000 0000 0000 000000
2016-05-06 07:31:20,0.01,0.48,0.00,24.93,28.25,31.20,14.44,49.30,1019.55,2032.00,3274.01,3016.00,3404.35,599.77,593.67,11.69,0000 0000 0000 0000 000000
2016-05-06 07:36:21,0.00,0.48,0.00,24.94,28.25,31.18,14.49,49.31,1019.55,2032.00,3273.98,3016.00,3404.03,600.09,593.98,11.74,0000 0000 0000 0000 000000
2016-05-06 07:41:23,0.01,0.48,0.00,24.91,28.25,31.17,14.45,49.26,1019.55,2032.00,3273.56,3015.98,3404.00,600.00,593.92,11.79,0000 0000 0000 0000 000000
2016-05-06 07:46:24,0.01,0.48,0.00,24.91,28.25,31.18,14.42,49.35,1019.55,2032.00,3273.02,3015.79,3403.97,599.78,593.88,11.84,0000 0000 0000 0000 000000
2016-05-06 07:51:25,0.02,0.48,0.00,24.91,28.25,31.18,14.41,49.17,1019.56,2032.00,3272.98,3015.17,3403.54,599.69,593.62,11.89,0000 0000 0000 0000 000000
2016-05-06 07:56:27,0.01,0.48,0.00,24.92,28.25,31.19,14.40,49.14,1019.55,2032.00,3272.77,3015.02,3403.06,599.98,593.90,11.94,0000 0000 0000 0000 000000
2016-05-06 08:01:28,0.01,0.48,0.00,24.93,28.25,31.19,14.45,49.38,1019.56,2032.00,3272.08,3015.00,3403.00,599.96,593.86,11.99,0000 0000 0000 0000 000000
2016-05-06 08:06:29,0.00,0.48,0.00,24.92,28.24,31.18,14.41,49.12,1019.57,2032.00,3272.00,3014.99,3402.98,599.94,593.83,12.04,0000 0000 0000 0000 000000
2016-05-06 08:11:30,0.00,0.48,0.00,24.88,28.23,31.18,14.36,49.10,1019.56,2032.00,3271.88,3014.91,3402.69,599.71,593.69,12.09,0000 0000 0000 0000 000000
2016-05-06 08:16:31,0.02,0.48,0.00,24.88,28.23,31.19,14.45,49.38,1019.57,2032.00,3271.32,3014.66,3402.25,599.81,593.85,12.14,0000 0000 0000 0000 000000
2016-05-06 08:21:33,0.01,0.48,0.00,24.89,28.22,31.18,14.41,49.03,1019.55,2032.00,3271.02,3014.31,3402.05,599.92,593.78,12.19,0000 0000 0000 0000 000000
2016-05-06 08:26:34,0.00,0.48,0.00,24.86,28.22,31.20,14.49,49.12,1019.56,2032.00,3270.97,3014.02,3402.00,600.26,594.18,12.24,0000 0000 0000 0000 000000
2016-05-06 08:31:35,0.01,0.48,0.00,24.84,28.22,31.18,14.48,49.01,1019.58,2032.00,3270.60,3014.00,3401.94,600.23,594.31,12.30,0000 0000 0000 0000 000000
2016-05-06 08:36:37,0.01,0.48,0.00,24.86,28.22,31.17,14.39,48.93,1019.58,2032.00,3270.05,3014.00,3401.55,599.41,593.57,12.35,0000 0000 0000 0000 000000
2016-05-06 08:41:38,0.00,0.48,0.00,24.87,28.22,31.17,14.45,49.06,1019.59,2032.00,3270.00,3013.93,3401.05,600.12,594.27,12.40,0000 0000 0000 0000 000000
2016-05-06 08:46:39,0.01,0.48,0.00,24.89,28.22,31.18,14.39,49.00,1019.59,2032.00,3269.96,3013.69,3401.01,600.24,594.23,12.45,0000 0000 0000 0000 000000
2016-05-06 08:51:41,0.02,0.49,0.00,24.86,28.20,31.17,14.46,49.08,1019.58,2032.00,3269.60,3013.24,3400.99,600.06,594.10,12.50,0000 0000 0000 0000 000000
2016-05-06 08:56:42,0.00,0.49,0.00,24.82,28.20,31.16,14.49,49.28,1019.56,2032.00,3269.03,3013.04,3400.96,600.56,594.59,12.55,0000 0000 0000 0000 000000
2016-05-06 09:01:43,0.01,0.49,0.00,24.82,28.20,31.16,14.41,49.19,1019.61,2032.00,3269.00,3013.00,3400.61,599.67,593.71,12.60,0000 0000 0000 0000 000000
2016-05-06 09:06:44,0.00,0.49,0.00,24.83,28.20,31.17,14.51,49.22,1019.65,2032.00,3268.93,3013.00,3400.13,600.43,594.44,12.65,0000 0000 0000 0000 000000
2016-05-06 09:11:45,0.01,0.49,0.00,24.83,28.20,31.16,14.45,49.11,1019.66,2032.00,3268.53,3012.99,3400.00,600.08,594.22,12.70,0000 0000 0000 0000 000000
2016-05-06 09:16:46,0.00,0.49,0.00,24.85,28.18,31.17,14.45,49.23,1019.78,2032.01,3268.07,3012.95,3400.00,599.77,593.97,12.75,0000 0000 0000 0000 000000
2016-05-06 09:21:47,0.02,0.49,0.00,24.79,28.17,31.18,14.51,49.29,1019.70,2032.00,3268.00,3012.50,3399.87,600.08,594.33,12.80,0000 0000 0000 0000 000000
2016-05-06 09:26:48,0.01,0.49,0.00,24.78,28.17,31.16,14.41,49.11,1019.61,2032.00,3267.98,3012.13,3399.53,599.62,593.95,12.85,0000 0000 0000 0000 000000
2016-05-06 09:31:50,0.01,0.49,0.00,24.80,28.17,31.17,14.51,49.22,1019.67,2032.01,3267.74,3012.05,3399.13,600.31,594.53,12.90,0000 0000 0000 0000 000000
2016-05-06 09:36:51,0.01,0.49,0.00,24.82,28.17,31.17,14.44,49.13,1019.62,2032.01,3267.09,3012.01,3399.02,599.74,593.89,12.95,0000 0000 0000 0000 000000
2016-05-06 09:41:52,0.00,0.49,0.00,24.80,28.17,31.17,14.41,49.09,1019.75,2032.00,3267.00,3012.00,3399.00,599.77,594.04,13.00,0000 0000 0000 0000 000000
2016-05-06 09:46:53,0.01,0.49,0.00,24.75,28.17,31.17,14.44,49.19,1019.75,2032.01,3266.66,3011.95,3398.81,600.07,594.36,13.05,0000 0000 0000 0000 000000
2016-05-06 09:51:54,0.02,0.49,0.00,24.76,28.17,31.18,14.45,49.13,1019.68,2032.00,3266.08,3011.69,3398.27,599.76,594.07,13.10,0000 0000 0000 0000 000000
2016-05-06 09:56:55,0.01,0.49,0.00,24.76,28.17,31.15,14.49,49.15,1019.72,2032.00,3266.00,3011.08,3398.01,600.26,594.58,13.15,0000 0000 0000 0000 000000
2016-05-06 10:01:57,0.01,0.49,0.00,24.77,28.17,31.17,14.52,49.12,1019.67,2032.00,3265.56,3011.00,3397.96,600.19,594.49,13.20,0000 0000 0000 0000 000000
2016-05-06 10:06:58,0.01,0.49,0.00,24.71,28.17,31.16,14.43,48.98,1019.63,2032.00,3265.02,3010.98,3397.38,599.93,594.26,13.25,0000 0000 0000 0000 000000
2016-05-06 10:11:59,0.00,0.50,0.00,24.71,28.17,31.18,14.41,49.16,1019.59,2032.00,3264.98,3010.85,3397.06,599.68,593.96,13.30,0000 0000 0000 0000 000000
2016-05-06 10:17:00,0.03,0.50,0.00,24.71,28.18,31.18,14.52,49.20,1019.61,2032.00,3264.48,3010.24,3396.99,600.05,594.41,13.35,0000 0000 0000 0000 000000
2016-05-06 10:22:01,0.00,0.50,0.00,24.70,28.18,31.21,14.47,49.32,1019.68,2032.00,3264.02,3010.01,3396.89,600.19,594.62,13.40,0000 0000 0000 0000 000000
2016-05-06 10:27:02,0.01,0.50,0.00,24.65,28.19,31.20,14.46,49.28,1019.76,2032.00,3263.99,3010.00,3396.44,599.95,594.41,13.45,0000 0000 0000 0000 000000
2016-05-06 10:32:04,0.01,0.50,0.00,24.66,28.19,31.21,14.57,49.25,1019.87,2032.01,3263.67,3009.98,3396.04,599.99,594.68,13.50,0000 0000 0000 0000 000000
2016-05-06 10:37:05,0.00,0.50,0.00,24.68,28.18,31.20,14.43,49.23,1019.90,2032.00,3263.07,3009.86,3395.99,599.94,594.53,13.55,0000 0000 0000 0000 000000
2016-05-06 10:42:07,0.02,0.50,0.00,24.63,28.17,31.21,14.47,49.33,1019.95,2032.00,3263.00,3009.26,3395.89,600.25,594.91,13.60,0000 0000 0000 0000 000000
2016-05-06 10:47:08,0.01,0.50,0.00,24.59,28.17,31.22,14.50,49.14,1019.99,2032.00,3262.96,3009.02,3395.35,600.06,594.96,13.65,0000 0000 0000 0000 000000
2016-05-06 10:52:09,0.01,0.50,0.00,24.60,28.17,31.22,14.46,49.01,1019.94,2032.00,3262.29,3009.00,3395.04,599.77,594.58,13.70,0000 0000 0000 0000 000000
2016-05-06 10:57:10,0.00,0.50,0.00,24.59,28.17,31.22,14.48,49.12,1019.99,2032.01,3262.00,3008.98,3394.99,600.08,594.84,13.75,0000 0000 0000 0000 000000
2016-05-06 11:02:11,0.00,0.50,0.00,24.55,28.17,31.23,14.48,49.17,1020.02,2032.01,3261.93,3008.89,3394.92,600.08,594.95,13.80,0000 0000 0000 0000 000000
2016-05-06 11:07:13,0.04,0.50,0.00,24.57,28.17,31.23,14.46,49.04,1020.03,2032.01,3261.25,3008.43,3394.36,599.90,594.83,13.85,0000 0000 0000 0000 000000
2016-05-06 11:12:14,0.01,0.50,0.00,24.57,28.17,31.22,14.50,49.13,1020.03,2032.01,3261.02,3008.10,3394.03,600.45,595.22,13.90,0000 0000 0000 0000 000000
2016-05-06 11:17:15,0.00,0.51,0.00,24.51,28.17,31.22,14.52,49.11,1020.03,2032.03,3260.92,3008.00,3394.00,600.39,595.39,13.95,0000 0000 0000 0000 000000
2016-05-06 11:22:17,0.01,0.51,0.00,24.52,28.15,31.22,14.51,48.96,1020.03,2032.03,3260.34,3008.00,3393.96,600.05,595.04,14.00,0000 0000 0000 0000 000000
2016-05-06 11:27:18,0.01,0.51,0.00,24.53,28.15,31.23,14.48,49.15,1020.03,2032.05,3260.02,3007.98,3393.41,599.89,594.86,14.05,0000 0000 0000 0000 000000
2016-05-06 11:32:19,0.01,0.51,0.00,24.50,28.15,31.23,14.52,49.16,1020.04,2032.06,3259.99,3007.83,3393.02,600.28,595.33,14.10,0000 0000 0000 0000 000000
2016-05-06 11:37:21,0.03,0.51,0.00,24.45,28.15,31.24,14.40,49.02,1020.04,2032.06,3259.30,3007.15,3393.00,599.57,594.73,14.15,0000 0000 0000 0000 000000
2016-05-06 11:42:22,0.01,0.51,0.00,24.45,28.15,31.23,14.46,49.02,1020.04,2032.08,3259.00,3007.01,3392.75,599.93,595.11,14.20,0000 0000 0000 0000 000000
2016-05-06 11:47:23,0.02,0.51,0.00,24.45,28.13,31.23,14.58,49.17,1020.04,2032.13,3258.71,3007.00,3392.18,600.47,595.74,14.25,0000 0000 0000 0000 000000
2016-05-06 11:52:24,0.01,0.51,0.00,24.46,28.12,31.21,14.51,49.20,1020.04,2032.12,3258.06,3006.87,3392.00,599.82,594.93,14.30,0000 0000 0000 0000 000000
2016-05-06 11:57:26,0.03,0.51,0.00,24.41,28.12,31.21,14.50,48.98,1020.04,2032.26,3257.96,3006.43,3391.94,600.06,595.41,14.35,0000 0000 0000 0000 000000
2016-05-06 12:02:27,0.02,0.51,0.00,24.44,28.12,31.20,14.49,48.98,1020.04,2032.15,3257.23,3006.02,3391.21,599.70,594.94,14.40,0000 0000 0000 0000 000000
2016-05-06 12:07:29,0.03,0.51,0.00,24.45,28.12,31.21,14.53,48.86,1020.04,2032.41,3257.00,3006.00,3391.01,600.31,595.53,14.45,0000 0000 0000 0000 000000
2016-05-06 12:12:30,0.01,0.52,0.00,24.47,28.12,31.22,14.48,48.93,1020.03,2032.52,3256.61,3005.93,3390.99,599.86,594.94,14.50,0000 0000 0000 0000 000000
2016-05-06 12:17:31,0.03,0.52,0.00,24.46,28.12,31.22,14.49,48.87,1020.00,2032.50,3256.02,3005.32,3390.74,600.37,595.46,14.55,0000 0000 0000 0000 000000
2016-05-06 12:22:32,0.02,0.52,0.00,24.47,28.11,31.21,14.55,49.11,1019.98,2032.61,3255.96,3005.01,3390.11,600.11,595.00,14.60,0000 0000 0000 0000 000000
2016-05-06 12:27:34,0.02,0.52,0.00,24.48,28.10,31.23,14.51,49.08,1019.95,2032.73,3255.34,3005.00,3390.00,600.14,595.11,14.65,0000 0000 0000 0000 000000
2016-05-06 12:32:35,0.01,0.52,0.00,24.50,28.10,31.22,14.44,48.95,1019.92,2032.80,3255.00,3004.86,3389.88,599.76,594.68,14.70,0000 0000 0000 0000 000000
2016-05-06 12:37:36,0.04,0.52,0.00,24.51,28.10,31.22,14.46,48.98,1019.88,2032.92,3254.77,3004.32,3389.23,600.13,595.01,14.76,0000 0000 0000 0000 000000
2016-05-06 12:42:37,0.01,0.52,0.00,24.48,28.10,31.22,14.50,49.07,1019.87,2032.93,3254.05,3004.02,3389.00,599.90,594.78,14.81,0000 0000 0000 0000 000000
2016-05-06 12:47:39,-0.00,0.52,0.00,24.50,28.10,31.21,14.43,48.97,1019.91,2032.87,3253.95,3003.99,3388.90,599.95,594.97,14.86,0000 0000 0000 0000 000000
2016-05-06 12:52:40,0.03,0.53,0.00,24.47,28.09,31.23,14.44,49.08,1019.81,2032.90,3253.31,3003.86,3388.25,599.64,594.60,14.91,0000 0000 0000 0000 000000
2016-05-06 12:57:42,0.00,0.53,0.00,24.47,28.08,31.21,14.50,48.92,1019.67,2032.79,3253.00,3003.18,3388.00,600.22,595.11,14.96,0000 0000 0000 0000 000000